Time,TemperatureF,DewpointF,PressureIn,WindDirection,WindDirectionDegrees,WindSpeedMPH,WindSpeedGustMPH,Humidity,HourlyPrecipIn,Conditions,Clouds,dailyrainin,SoftwareType,DateUTC
2013-03-21 00:00:00,34.2,29.6,29.79,ESE,104,0.0,0.0,83,0.00,,BKN200,0.00,VWS V14.01,2013-03-21 04:00:00,
2013-03-21 00:05:00,34.5,29.9,29.79,ESE,104,0.0,0.0,83,0.00,,BKN200,0.00,VWS V14.01,2013-03-21 04:05:00,
2013-03-21 00:10:00,34.5,29.3,29.78,ESE,104,0.0,0.0,81,0.00,,BKN200,0.00,VWS V14.01,2013-03-21 04:10:00,
2013-03-21 00:15:00,34.5,29.6,29.78,ESE,104,0.0,0.0,82,0.00,,BKN200,0.00,VWS V14.01,2013-03-21 04:15:00,
2013-03-21 00:25:00,34.7,30.1,29.78,ESE,104,0.0,0.0,83,0.00,,BKN200,0.00,VWS V14.01,2013-03-21 04:25:00,
2013-03-21 00:30:00,34.7,30.4,29.77,ESE,104,0.0,0.0,84,0.00,,BKN200,0.00,VWS V14.01,2013-03-21 04:30:00,
2013-03-21 00:40:00,34.6,30.0,29.77,ESE,104,0.0,0.0,83,0.00,,BKN200,0.00,VWS V14.01,2013-03-21 04:40:00,
2013-03-21 00:45:00,34.5,30.2,29.77,ESE,104,0.0,0.0,84,0.00,,BKN200,0.00,VWS V14.01,2013-03-21 04:45:00,
2013-03-21 00:50:00,34.5,29.6,29.76,ESE,104,0.0,0.0,82,0.00,,BKN200,0.00,VWS V14.01,2013-03-21 04:50:00,
2013-03-21 01:00:00,34.7,29.5,29.76,ESE,104,0.0,0.0,81,0.00,,BKN200,0.00,VWS V14.01,2013-03-21 05:00:00,
2013-03-21 01:05:00,34.8,29.9,29.76,ESE,104,0.0,0.0,82,0.00,,BKN200,0.00,VWS V14.01,2013-03-21 05:05:00,
2013-03-21 01:10:00,35.0,30.7,29.76,West,264,2.0,2.0,84,0.00,,BKN200,0.00,VWS V14.01,2013-03-21 05:10:00,
2013-03-21 01:15:00,35.1,29.6,29.77,West,265,1.0,2.0,80,0.00,,BKN200,0.00,VWS V14.01,2013-03-21 05:15:00,
2013-03-21 01:20:00,35.6,29.1,29.77,West,262,0.0,3.0,77,0.00,,BKN200,0.00,VWS V14.01,2013-03-21 05:20:00,
2013-03-21 01:30:00,36.7,30.5,29.76,SE,129,1.0,1.0,78,0.00,,BKN200,0.00,VWS V14.01,2013-03-21 05:30:00,
2013-03-21 01:40:00,36.7,30.5,29.76,SE,129,0.0,0.0,78,0.00,,BKN200,0.00,VWS V14.01,2013-03-21 05:40:00,
2013-03-21 01:50:00,36.7,30.2,29.76,ESE,122,0.0,1.0,77,0.00,,BKN200,0.00,VWS V14.01,2013-03-21 05:50:00,
2013-03-21 01:55:00,36.6,30.7,29.76,ESE,122,0.0,0.0,79,0.00,,BKN200,0.00,VWS V14.01,2013-03-21 05:55:00,
2013-03-21 02:00:00,36.6,31.0,29.76,ESE,122,0.0,1.0,80,0.00,,BKN095,0.00,VWS V14.01,2013-03-21 06:00:00,
2013-03-21 02:05:00,36.7,30.8,29.75,ESE,122,0.0,0.0,79,0.00,,BKN095,0.00,VWS V14.01,2013-03-21 06:05:00,
2013-03-21 02:10:00,36.8,30.6,29.75,ESE,122,0.0,0.0,78,0.00,,BKN095,0.00,VWS V14.01,2013-03-21 06:10:00,
2013-03-21 02:15:00,36.8,30.6,29.75,ESE,122,0.0,0.0,78,0.00,,BKN095,0.00,VWS V14.01,2013-03-21 06:15:00,
2013-03-21 02:25:00,37.2,30.4,29.76,WSW,238,0.0,1.0,76,0.00,,BKN095,0.00,VWS V14.01,2013-03-21 06:25:00,
2013-03-21 02:30:00,37.4,30.2,29.76,East,98,0.0,1.0,75,0.00,,BKN095,0.00,VWS V14.01,2013-03-21 06:30:00,
2013-03-21 02:40:00,37.7,30.8,29.75,ESE,113,0.0,1.0,76,0.00,,BKN095,0.00,VWS V14.01,2013-03-21 06:40:00,
2013-03-21 02:45:00,37.6,31.7,29.75,ESE,113,0.0,0.0,79,0.00,,BKN095,0.00,VWS V14.01,2013-03-21 06:45:00,
2013-03-21 02:50:00,37.6,31.7,29.75,ESE,113,0.0,0.0,79,0.00,,BKN095,0.00,VWS V14.01,2013-03-21 06:50:00,
2013-03-21 02:55:00,37.7,32.1,29.74,ESE,113,0.0,1.0,80,0.00,,BKN095,0.00,VWS V14.01,2013-03-21 06:55:00,
2013-03-21 03:00:00,37.7,31.1,29.74,ESE,113,0.0,1.0,77,0.00,,BKN090,0.00,VWS V14.01,2013-03-21 07:00:00,
2013-03-21 03:10:00,37.9,32.3,29.74,ESE,113,0.0,1.0,80,0.00,,BKN090,0.00,VWS V14.01,2013-03-21 07:10:00,
2013-03-21 03:15:00,37.8,32.2,29.73,ESE,113,0.0,0.0,80,0.00,,BKN090,0.00,VWS V14.01,2013-03-21 07:15:00,
2013-03-21 03:21:00,37.9,32.3,29.73,ESE,113,0.0,0.0,80,0.00,,BKN090,0.00,VWS V14.01,2013-03-21 07:21:00,
2013-03-21 03:30:00,37.9,32.0,29.73,ESE,113,0.0,0.0,79,0.00,,BKN090,0.00,VWS V14.01,2013-03-21 07:30:00,
2013-03-21 03:35:00,38.0,32.1,29.73,ESE,113,0.0,0.0,79,0.00,,BKN090,0.00,VWS V14.01,2013-03-21 07:35:00,
2013-03-21 03:40:00,38.1,32.5,29.73,ESE,113,0.0,0.0,80,0.00,,BKN090,0.00,VWS V14.01,2013-03-21 07:40:00,
2013-03-21 03:45:00,38.3,33.0,29.73,ESE,113,0.0,0.0,81,0.00,,BKN090,0.00,VWS V14.01,2013-03-21 07:45:00,
2013-03-21 03:50:00,38.5,33.2,29.73,ESE,113,0.0,0.0,81,0.00,,BKN090,0.00,VWS V14.01,2013-03-21 07:50:00,
2013-03-21 03:55:00,38.5,32.9,29.73,ESE,113,0.0,0.0,80,0.00,,BKN090,0.00,VWS V14.01,2013-03-21 07:55:00,
2013-03-21 04:00:00,38.5,33.5,29.73,ESE,113,0.0,0.0,82,0.00,,FEW075,0.00,VWS V14.01,2013-03-21 08:00:00,
2013-03-21 04:05:00,38.4,34.0,29.73,ESE,113,0.0,0.0,84,0.00,,FEW075,0.00,VWS V14.01,2013-03-21 08:05:00,
2013-03-21 04:10:00,38.4,32.8,29.73,WSW,258,0.0,0.0,80,0.00,,FEW075,0.00,VWS V14.01,2013-03-21 08:10:00,
2013-03-21 04:15:00,38.5,32.2,29.73,WSW,258,0.0,1.0,78,0.00,,FEW075,0.00,VWS V14.01,2013-03-21 08:15:00,
2013-03-21 04:20:00,38.4,33.1,29.73,WSW,257,0.0,0.0,81,0.00,,FEW075,0.00,VWS V14.01,2013-03-21 08:20:00,
2013-03-21 04:25:00,38.2,33.8,29.73,WSW,258,0.0,0.0,84,0.00,,FEW075,0.00,VWS V14.01,2013-03-21 08:25:00,
2013-03-21 04:30:00,37.8,33.4,29.73,WSW,257,0.0,0.0,84,0.00,,FEW075,0.00,VWS V14.01,2013-03-21 08:30:00,
2013-03-21 04:35:00,37.6,33.2,29.73,WSW,258,0.0,0.0,84,0.00,,FEW075,0.00,VWS V14.01,2013-03-21 08:35:00,
2013-03-21 04:40:00,37.3,32.9,29.73,WSW,257,0.0,0.0,84,0.00,,FEW075,0.00,VWS V14.01,2013-03-21 08:40:00,
2013-03-21 04:45:00,37.1,32.7,29.73,WSW,258,0.0,0.0,84,0.00,,FEW075,0.00,VWS V14.01,2013-03-21 08:45:00,
2013-03-21 04:50:00,37.7,32.4,29.73,West,277,0.0,1.0,81,0.00,,FEW075,0.00,VWS V14.01,2013-03-21 08:50:00,
2013-03-21 04:55:00,38.6,32.7,29.74,West,276,0.0,1.0,79,0.00,,FEW075,0.00,VWS V14.01,2013-03-21 08:55:00,
2013-03-21 05:00:00,39.0,31.4,29.74,WNW,283,0.0,2.0,74,0.00,,FEW075,0.00,VWS V14.01,2013-03-21 09:00:00,
2013-03-21 05:05:00,39.4,31.1,29.74,WNW,286,0.0,1.0,72,0.00,,FEW075,0.00,VWS V14.01,2013-03-21 09:05:00,
2013-03-21 05:10:00,39.5,30.5,29.74,WNW,288,0.0,1.0,70,0.00,,FEW075,0.00,VWS V14.01,2013-03-21 09:10:00,
2013-03-21 05:15:00,39.3,30.4,29.74,WNW,288,0.0,1.0,70,0.00,,FEW075,0.00,VWS V14.01,2013-03-21 09:15:00,
2013-03-21 05:20:00,39.4,29.4,29.74,NW,310,0.0,2.0,67,0.00,,FEW075,0.00,VWS V14.01,2013-03-21 09:20:00,
2013-03-21 05:25:00,39.5,29.1,29.75,NW,310,0.0,0.0,66,0.00,,FEW075,0.00,VWS V14.01,2013-03-21 09:25:00,
2013-03-21 05:30:00,39.5,29.1,29.75,NW,322,1.0,1.0,66,0.00,,FEW075,0.00,VWS V14.01,2013-03-21 09:30:00,
2013-03-21 05:35:00,39.5,28.4,29.75,NNW,331,0.0,1.0,64,0.00,,FEW075,0.00,VWS V14.01,2013-03-21 09:35:00,
2013-03-21 05:40:00,39.5,28.0,29.75,NW,314,0.0,2.0,63,0.00,,FEW075,0.00,VWS V14.01,2013-03-21 09:40:00,
2013-03-21 05:45:00,39.5,28.0,29.75,West,264,0.0,2.0,63,0.00,,FEW075,0.00,VWS V14.01,2013-03-21 09:45:00,
2013-03-21 05:50:00,39.3,27.8,29.75,WNW,291,0.0,1.0,63,0.00,,FEW075,0.00,VWS V14.01,2013-03-21 09:50:00,
2013-03-21 05:55:00,39.2,27.7,29.75,NW,308,0.0,1.0,63,0.00,,FEW075,0.00,VWS V14.01,2013-03-21 09:55:00,
2013-03-21 06:05:00,39.1,27.6,29.75,West,268,0.0,2.0,63,0.00,,FEW075,0.00,VWS V14.01,2013-03-21 10:05:00,
2013-03-21 06:10:00,38.9,27.4,29.75,WSW,245,0.0,1.0,63,0.00,,FEW075,0.00,VWS V14.01,2013-03-21 10:10:00,
2013-03-21 06:15:00,38.8,27.3,29.76,WNW,283,0.0,1.0,63,0.00,,FEW075,0.00,VWS V14.01,2013-03-21 10:15:00,
2013-03-21 06:20:00,38.7,27.2,29.76,West,262,0.0,4.0,63,0.00,,FEW075,0.00,VWS V14.01,2013-03-21 10:20:00,
2013-03-21 06:25:00,38.5,27.4,29.76,West,274,1.0,2.0,64,0.00,,FEW075,0.00,VWS V14.01,2013-03-21 10:25:00,
2013-03-21 06:30:00,38.4,27.3,29.76,West,279,0.0,2.0,64,0.00,,FEW075,0.00,VWS V14.01,2013-03-21 10:30:00,
2013-03-21 06:35:00,38.3,26.8,29.76,NW,304,0.0,2.0,63,0.00,,FEW075,0.00,VWS V14.01,2013-03-21 10:35:00,
2013-03-21 06:40:00,38.4,26.9,29.76,WNW,295,0.0,2.0,63,0.00,,FEW075,0.00,VWS V14.01,2013-03-21 10:40:00,
2013-03-21 06:45:00,38.3,27.2,29.76,WNW,291,0.0,1.0,64,0.00,,FEW075,0.00,VWS V14.01,2013-03-21 10:45:00,
2013-03-21 06:50:00,38.2,27.1,29.76,NNW,342,0.0,1.0,64,0.00,,FEW075,0.00,VWS V14.01,2013-03-21 10:50:00,
2013-03-21 06:55:00,38.3,26.8,29.77,WNW,291,0.0,1.0,63,0.00,,FEW075,0.00,VWS V14.01,2013-03-21 10:55:00,
2013-03-21 07:00:00,38.2,26.7,29.76,West,276,0.0,5.0,63,0.00,,SCT095,0.00,VWS V14.01,2013-03-21 11:00:00,
2013-03-21 07:05:00,38.3,26.0,29.76,NW,326,0.0,2.0,61,0.00,,SCT095,0.00,VWS V14.01,2013-03-21 11:05:00,
2013-03-21 07:10:00,38.4,26.1,29.76,WNW,289,0.0,1.0,61,0.00,,SCT095,0.00,VWS V14.01,2013-03-21 11:10:00,
2013-03-21 07:15:00,38.2,27.1,29.76,WSW,254,0.0,1.0,64,0.00,,SCT095,0.00,VWS V14.01,2013-03-21 11:15:00,
2013-03-21 07:20:00,38.1,26.2,29.76,NW,307,1.0,2.0,62,0.00,,SCT095,0.00,VWS V14.01,2013-03-21 11:20:00,
2013-03-21 07:25:00,38.0,25.4,29.76,West,277,0.0,1.0,60,0.00,,SCT095,0.00,VWS V14.01,2013-03-21 11:25:00,
2013-03-21 07:30:00,37.9,24.5,29.76,NW,315,0.0,3.0,58,0.00,,SCT095,0.00,VWS V14.01,2013-03-21 11:30:00,
2013-03-21 07:35:00,37.9,24.0,29.76,WNW,290,0.0,3.0,57,0.00,,SCT095,0.00,VWS V14.01,2013-03-21 11:35:00,
2013-03-21 07:40:00,37.8,24.0,29.76,WNW,300,0.0,3.0,57,0.00,,SCT095,0.00,VWS V14.01,2013-03-21 11:40:00,
2013-03-21 07:45:00,37.8,23.5,29.77,West,281,0.0,1.0,56,0.00,,SCT095,0.00,VWS V14.01,2013-03-21 11:45:00,
2013-03-21 07:50:00,37.8,24.0,29.77,WNW,296,0.0,2.0,57,0.00,,SCT095,0.00,VWS V14.01,2013-03-21 11:50:00,
2013-03-21 07:55:00,37.9,24.0,29.77,WSW,250,3.0,3.0,57,0.00,,SCT095,0.00,VWS V14.01,2013-03-21 11:55:00,
2013-03-21 08:00:00,38.2,23.0,29.77,NW,307,0.0,3.0,54,0.00,,SCT100,0.00,VWS V14.01,2013-03-21 12:00:00,
2013-03-21 08:05:00,38.7,22.6,29.77,NW,304,1.0,1.0,52,0.00,,SCT100,0.00,VWS V14.01,2013-03-21 12:05:00,
2013-03-21 08:10:00,38.8,22.7,29.77,WNW,290,0.0,1.0,52,0.00,,SCT100,0.00,VWS V14.01,2013-03-21 12:10:00,
2013-03-21 08:15:00,38.7,22.1,29.77,WNW,287,1.0,5.0,51,0.00,,SCT100,0.00,VWS V14.01,2013-03-21 12:15:00,
2013-03-21 08:20:00,38.8,22.2,29.78,NW,310,0.0,2.0,51,0.00,,SCT100,0.00,VWS V14.01,2013-03-21 12:20:00,
2013-03-21 08:25:00,38.9,22.3,29.78,West,265,2.0,3.0,51,0.00,,SCT100,0.00,VWS V14.01,2013-03-21 12:25:00,
2013-03-21 08:30:00,39.1,22.5,29.78,WSW,258,1.0,5.0,51,0.00,,SCT100,0.00,VWS V14.01,2013-03-21 12:30:00,
2013-03-21 08:35:00,39.2,21.7,29.78,WNW,289,0.0,4.0,49,0.00,,SCT100,0.00,VWS V14.01,2013-03-21 12:35:00,
2013-03-21 08:40:00,39.1,21.1,29.78,NW,323,0.0,3.0,48,0.00,,SCT100,0.00,VWS V14.01,2013-03-21 12:40:00,
2013-03-21 08:45:00,39.2,21.7,29.78,WNW,295,0.0,4.0,49,0.00,,SCT100,0.00,VWS V14.01,2013-03-21 12:45:00,
2013-03-21 08:50:00,39.1,21.6,29.78,WNW,288,1.0,3.0,49,0.00,,SCT100,0.00,VWS V14.01,2013-03-21 12:50:00,
2013-03-21 09:00:00,38.9,20.9,29.78,NW,326,1.0,5.0,48,0.00,,SCT100,0.00,VWS V14.01,2013-03-21 13:00:00,
2013-03-21 09:05:00,38.9,21.4,29.79,SW,236,0.0,6.0,49,0.00,,SCT100,0.00,VWS V14.01,2013-03-21 13:05:00,
2013-03-21 09:10:00,38.8,20.8,29.79,WNW,295,5.0,8.0,48,0.00,,SCT100,0.00,VWS V14.01,2013-03-21 13:10:00,
2013-03-21 09:20:00,38.9,20.9,29.79,NW,314,1.0,7.0,48,0.00,,SCT100,0.00,VWS V14.01,2013-03-21 13:20:00,
2013-03-21 09:25:00,39.1,20.6,29.79,WNW,292,1.0,5.0,47,0.00,,SCT100,0.00,VWS V14.01,2013-03-21 13:25:00,
2013-03-21 09:30:00,39.9,21.3,29.79,WNW,296,4.0,5.0,47,0.00,,SCT100,0.00,VWS V14.01,2013-03-21 13:30:00,
2013-03-21 09:35:00,39.7,19.6,29.79,WNW,293,3.0,7.0,44,0.00,,SCT100,0.00,VWS V14.01,2013-03-21 13:35:00,
2013-03-21 09:40:00,39.5,19.4,29.79,WNW,294,1.0,7.0,44,0.00,,SCT100,0.00,VWS V14.01,2013-03-21 13:40:00,
2013-03-21 09:50:00,39.5,19.9,29.80,WSW,245,5.0,7.0,45,0.00,,SCT100,0.00,VWS V14.01,2013-03-21 13:50:00,
2013-03-21 09:55:00,39.5,19.9,29.80,WNW,303,1.0,9.0,45,0.00,,SCT100,0.00,VWS V14.01,2013-03-21 13:55:00,
2013-03-21 10:00:00,39.6,20.5,29.80,WNW,300,1.0,8.0,46,0.00,,SCT085,0.00,VWS V14.01,2013-03-21 14:00:00,
2013-03-21 10:05:00,39.8,19.7,29.80,West,268,4.0,4.0,44,0.00,,SCT085,0.00,VWS V14.01,2013-03-21 14:05:00,
2013-03-21 10:10:00,39.7,20.1,29.80,West,274,3.0,8.0,45,0.00,,SCT085,0.00,VWS V14.01,2013-03-21 14:10:00,
2013-03-21 10:15:00,40.0,20.4,29.79,SW,234,0.0,6.0,45,0.00,,SCT085,0.00,VWS V14.01,2013-03-21 14:15:00,
2013-03-21 10:20:00,40.7,21.0,29.79,NW,324,0.0,4.0,45,0.00,,SCT085,0.00,VWS V14.01,2013-03-21 14:20:00,
2013-03-21 10:25:00,40.7,20.5,29.80,WNW,298,3.0,13.0,44,0.00,,SCT085,0.00,VWS V14.01,2013-03-21 14:25:00,
2013-03-21 10:35:00,40.7,20.5,29.80,NNW,333,2.0,6.0,44,0.00,,SCT085,0.00,VWS V14.01,2013-03-21 14:35:00,
2013-03-21 10:40:00,41.4,21.1,29.80,NW,311,2.0,3.0,44,0.00,,SCT085,0.00,VWS V14.01,2013-03-21 14:40:00,
2013-03-21 10:45:00,40.7,19.4,29.80,NW,304,1.0,4.0,42,0.00,,SCT085,0.00,VWS V14.01,2013-03-21 14:45:00,
2013-03-21 10:50:00,40.5,19.8,29.80,NW,317,0.0,3.0,43,0.00,,SCT085,0.00,VWS V14.01,2013-03-21 14:50:00,
2013-03-21 10:55:00,40.7,20.0,29.80,NW,326,2.0,3.0,43,0.00,,SCT085,0.00,VWS V14.01,2013-03-21 14:55:00,
2013-03-21 11:00:00,41.2,21.0,29.80,NW,308,1.0,2.0,44,0.00,,SCT085,0.00,VWS V14.01,2013-03-21 15:00:00,
2013-03-21 11:05:00,42.0,21.1,29.80,WNW,285,1.0,4.0,43,0.00,,SCT085,0.00,VWS V14.01,2013-03-21 15:05:00,
2013-03-21 11:10:00,42.1,20.1,29.80,NNW,328,1.0,6.0,41,0.00,,SCT085,0.00,VWS V14.01,2013-03-21 15:10:00,
2013-03-21 11:15:00,42.9,20.8,29.80,WNW,295,2.0,4.0,41,0.00,,SCT085,0.00,VWS V14.01,2013-03-21 15:15:00,
2013-03-21 11:20:00,43.4,21.9,29.80,NE,37,0.0,3.0,42,0.00,,SCT085,0.00,VWS V14.01,2013-03-21 15:20:00,
2013-03-21 11:25:00,43.1,21.6,29.80,NW,309,1.0,6.0,42,0.00,,SCT085,0.00,VWS V14.01,2013-03-21 15:25:00,
2013-03-21 11:30:00,42.6,20.0,29.80,WNW,301,2.0,2.0,40,0.00,,SCT085,0.00,VWS V14.01,2013-03-21 15:30:00,
2013-03-21 11:35:00,41.9,19.9,29.80,NW,306,0.0,2.0,41,0.00,,SCT085,0.00,VWS V14.01,2013-03-21 15:35:00,
2013-03-21 11:40:00,41.6,20.2,29.80,NW,304,1.0,5.0,42,0.00,,SCT085,0.00,VWS V14.01,2013-03-21 15:40:00,
2013-03-21 11:45:00,41.6,20.8,29.80,NW,306,0.0,3.0,43,0.00,,SCT085,0.00,VWS V14.01,2013-03-21 15:45:00,
2013-03-21 11:50:00,41.6,21.9,29.80,NW,305,0.0,2.0,45,0.00,,SCT085,0.00,VWS V14.01,2013-03-21 15:50:00,
2013-03-21 11:55:00,41.1,21.9,29.80,NNE,16,3.0,5.0,46,0.00,,SCT085,0.00,VWS V14.01,2013-03-21 15:55:00,
2013-03-21 12:00:00,40.6,22.0,29.80,NNE,29,3.0,5.0,47,0.00,,SCT055,0.00,VWS V14.01,2013-03-21 16:00:00,
2013-03-21 12:05:00,40.8,22.1,29.80,NW,309,1.0,6.0,47,0.00,,SCT055,0.00,VWS V14.01,2013-03-21 16:05:00,
2013-03-21 12:10:00,41.3,22.6,29.80,WNW,303,1.0,6.0,47,0.00,,SCT055,0.00,VWS V14.01,2013-03-21 16:10:00,
2013-03-21 12:15:00,42.0,21.7,29.79,NW,314,1.0,7.0,44,0.00,,SCT055,0.00,VWS V14.01,2013-03-21 16:15:00,
2013-03-21 12:20:00,41.7,21.9,29.79,NE,41,3.0,5.0,45,0.00,,SCT055,0.00,VWS V14.01,2013-03-21 16:20:00,
2013-03-21 12:25:00,41.9,22.1,29.79,NW,325,2.0,5.0,45,0.00,,SCT055,0.00,VWS V14.01,2013-03-21 16:25:00,
2013-03-21 12:30:00,42.5,23.2,29.79,NNE,32,3.0,4.0,46,0.00,,SCT055,0.00,VWS V14.01,2013-03-21 16:30:00,
2013-03-21 12:35:00,42.6,21.1,29.79,NW,313,1.0,6.0,42,0.00,,SCT055,0.00,VWS V14.01,2013-03-21 16:35:00,
2013-03-21 12:40:00,42.5,22.1,29.79,ENE,67,1.0,3.0,44,0.00,,SCT055,0.00,VWS V14.01,2013-03-21 16:40:00,
2013-03-21 12:45:00,43.1,21.0,29.79,NW,312,0.0,5.0,41,0.00,,SCT055,0.00,VWS V14.01,2013-03-21 16:45:00,
2013-03-21 12:50:00,44.3,22.7,29.79,WNW,300,0.0,2.0,42,0.00,,SCT055,0.00,VWS V14.01,2013-03-21 16:50:00,
2013-03-21 12:55:00,44.7,21.9,29.79,East,96,0.0,2.0,40,0.00,,SCT060,0.00,VWS V14.01,2013-03-21 16:55:00,
2013-03-21 13:00:00,44.1,21.3,29.79,NNE,32,1.0,3.0,40,0.00,,SCT060,0.00,VWS V14.01,2013-03-21 17:00:00,
2013-03-21 13:10:00,43.2,22.2,29.79,WNW,300,1.0,1.0,43,0.00,,SCT060,0.00,VWS V14.01,2013-03-21 17:10:00,
2013-03-21 13:15:00,42.9,19.7,29.79,WNW,285,2.0,3.0,39,0.00,,SCT060,0.00,VWS V14.01,2013-03-21 17:15:00,
2013-03-21 13:20:00,43.3,19.4,29.78,NNE,20,0.0,5.0,38,0.00,,SCT060,0.00,VWS V14.01,2013-03-21 17:20:00,
2013-03-21 13:25:00,43.4,20.1,29.78,WNW,296,2.0,5.0,39,0.00,,SCT060,0.00,VWS V14.01,2013-03-21 17:25:00,
2013-03-21 13:30:00,43.5,20.2,29.78,WNW,294,2.0,6.0,39,0.00,,SCT060,0.00,VWS V14.01,2013-03-21 17:30:00,
2013-03-21 13:40:00,43.7,19.1,29.78,West,279,2.0,3.0,37,0.00,,SCT060,0.00,VWS V14.01,2013-03-21 17:40:00,
2013-03-21 13:45:00,43.9,18.0,29.78,WNW,290,2.0,7.0,35,0.00,,SCT060,0.00,VWS V14.01,2013-03-21 17:45:00,
2013-03-21 13:50:00,43.8,19.2,29.78,WNW,288,0.0,6.0,37,0.00,,SCT060,0.00,VWS V14.01,2013-03-21 17:50:00,
2013-03-21 13:55:00,44.5,17.9,29.78,WNW,283,3.0,11.0,34,0.00,,SCT060,0.00,VWS V14.01,2013-03-21 17:55:00,
2013-03-21 14:00:00,45.0,17.6,29.78,North,354,1.0,5.0,33,0.00,,SCT070,0.00,VWS V14.01,2013-03-21 18:00:00,
2013-03-21 14:05:00,44.7,17.4,29.78,West,266,2.0,7.0,33,0.00,,SCT070,0.00,VWS V14.01,2013-03-21 18:05:00,
2013-03-21 14:10:00,45.7,17.5,29.78,WSW,238,2.0,6.0,32,0.00,,SCT070,0.00,VWS V14.01,2013-03-21 18:10:00,
2013-03-21 14:15:00,45.4,16.5,29.77,WSW,249,4.0,10.0,31,0.00,,SCT070,0.00,VWS V14.01,2013-03-21 18:15:00,
2013-03-21 14:20:00,45.5,17.4,29.77,WSW,246,1.0,10.0,32,0.00,,SCT070,0.00,VWS V14.01,2013-03-21 18:20:00,
2013-03-21 14:25:00,45.4,16.5,29.77,WSW,251,1.0,10.0,31,0.00,,SCT070,0.00,VWS V14.01,2013-03-21 18:25:00,
2013-03-21 14:30:00,45.0,16.2,29.77,NW,316,0.0,8.0,31,0.00,,SCT070,0.00,VWS V14.01,2013-03-21 18:30:00,
2013-03-21 14:40:00,44.3,15.6,29.77,West,266,1.0,11.0,31,0.00,,SCT070,0.00,VWS V14.01,2013-03-21 18:40:00,
2013-03-21 14:45:00,43.8,17.3,29.77,NW,320,2.0,6.0,34,0.00,,SCT070,0.00,VWS V14.01,2013-03-21 18:45:00,
2013-03-21 14:50:00,44.3,18.4,29.77,WSW,248,2.0,5.0,35,0.00,,SCT070,0.00,VWS V14.01,2013-03-21 18:50:00,
2013-03-21 14:55:00,45.4,15.0,29.77,NNW,330,2.0,6.0,29,0.00,,SCT070,0.00,VWS V14.01,2013-03-21 18:55:00,
2013-03-21 15:00:00,45.4,15.8,29.77,West,267,2.0,8.0,30,0.00,,BKN070,0.00,VWS V14.01,2013-03-21 19:00:00,
2013-03-21 15:10:00,44.6,15.9,29.76,WNW,295,2.0,14.0,31,0.00,,BKN070,0.00,VWS V14.01,2013-03-21 19:10:00,
2013-03-21 15:15:00,45.3,17.2,29.77,SSW,200,7.0,8.0,32,0.00,,BKN070,0.00,VWS V14.01,2013-03-21 19:15:00,
2013-03-21 15:20:00,45.1,16.3,29.77,NNW,344,1.0,11.0,31,0.00,,BKN070,0.00,VWS V14.01,2013-03-21 19:20:00,
2013-03-21 15:25:00,45.9,15.4,29.77,NW,315,2.0,5.0,29,0.00,,BKN070,0.00,VWS V14.01,2013-03-21 19:25:00,
2013-03-21 15:35:00,44.3,15.6,29.77,SW,231,5.0,8.0,31,0.00,,BKN070,0.00,VWS V14.01,2013-03-21 19:35:00,
2013-03-21 15:40:00,43.9,15.2,29.77,WNW,295,3.0,10.0,31,0.00,,BKN070,0.00,VWS V14.01,2013-03-21 19:40:00,
2013-03-21 15:45:00,43.7,15.8,29.78,West,266,10.0,12.0,32,0.00,,BKN070,0.00,VWS V14.01,2013-03-21 19:45:00,
2013-03-21 15:50:00,43.5,15.6,29.78,NW,308,1.0,11.0,32,0.00,,BKN070,0.00,VWS V14.01,2013-03-21 19:50:00,
2013-03-21 15:55:00,43.6,16.4,29.78,NW,307,2.0,4.0,33,0.00,,BKN070,0.00,VWS V14.01,2013-03-21 19:55:00,
2013-03-21 16:00:00,44.1,14.7,29.78,West,277,2.0,6.0,30,0.00,,BKN070,0.00,VWS V14.01,2013-03-21 20:00:00,
2013-03-21 16:10:00,43.9,14.5,29.79,WNW,299,2.0,10.0,30,0.00,,BKN070,0.00,VWS V14.01,2013-03-21 20:10:00,
2013-03-21 16:15:00,44.6,13.5,29.79,WSW,256,1.0,10.0,28,0.00,,BKN070,0.00,VWS V14.01,2013-03-21 20:15:00,
2013-03-21 16:25:00,43.8,12.0,29.79,WNW,295,4.0,13.0,27,0.00,,BKN070,0.00,VWS V14.01,2013-03-21 20:25:00,
2013-03-21 16:30:00,43.8,12.8,29.80,WNW,290,3.0,5.0,28,0.00,,BKN070,0.00,VWS V14.01,2013-03-21 20:30:00,
2013-03-21 16:35:00,44.1,13.1,29.80,WSW,252,4.0,8.0,28,0.00,,BKN070,0.00,VWS V14.01,2013-03-21 20:35:00,
2013-03-21 16:40:00,43.8,12.8,29.80,West,266,1.0,10.0,28,0.00,,BKN070,0.00,VWS V14.01,2013-03-21 20:40:00,
2013-03-21 16:45:00,43.1,11.4,29.80,NNW,336,0.0,10.0,27,0.00,,BKN070,0.00,VWS V14.01,2013-03-21 20:45:00,
2013-03-21 16:50:00,43.6,12.7,29.80,NNW,328,1.0,9.0,28,0.00,,BKN070,0.00,VWS V14.01,2013-03-21 20:50:00,
2013-03-21 16:55:00,44.1,12.3,29.80,WNW,297,2.0,6.0,27,0.00,,BKN070,0.00,VWS V14.01,2013-03-21 20:55:00,
2013-03-21 17:00:00,43.3,12.4,29.81,WNW,291,3.0,6.0,28,0.00,,BKN250,0.00,VWS V14.01,2013-03-21 21:00:00,
2013-03-21 17:05:00,42.6,13.4,29.81,WSW,255,5.0,7.0,30,0.00,,BKN250,0.00,VWS V14.01,2013-03-21 21:05:00,
2013-03-21 17:10:00,42.5,14.7,29.81,SW,236,1.0,7.0,32,0.00,,BKN250,0.00,VWS V14.01,2013-03-21 21:10:00,
2013-03-21 17:15:00,42.8,14.3,29.81,West,262,3.0,9.0,31,0.00,,BKN250,0.00,VWS V14.01,2013-03-21 21:15:00,
2013-03-21 17:20:00,42.5,13.3,29.82,NW,320,1.0,10.0,30,0.00,,BKN250,0.00,VWS V14.01,2013-03-21 21:20:00,
2013-03-21 17:25:00,41.9,13.5,29.82,WNW,297,2.0,4.0,31,0.00,,BKN250,0.00,VWS V14.01,2013-03-21 21:25:00,
2013-03-21 17:30:00,41.5,13.1,29.82,NW,305,0.0,8.0,31,0.00,,BKN250,0.00,VWS V14.01,2013-03-21 21:30:00,
2013-03-21 17:35:00,41.6,13.2,29.83,WNW,287,0.0,5.0,31,0.00,,BKN250,0.00,VWS V14.01,2013-03-21 21:35:00,
2013-03-21 17:40:00,41.4,13.8,29.83,WNW,291,10.0,14.0,32,0.00,,BKN250,0.00,VWS V14.01,2013-03-21 21:40:00,
2013-03-21 17:45:00,42.2,13.8,29.83,NW,305,1.0,10.0,31,0.00,,BKN250,0.00,VWS V14.01,2013-03-21 21:45:00,
2013-03-21 17:50:00,41.9,13.5,29.83,WSW,257,4.0,6.0,31,0.00,,BKN250,0.00,VWS V14.01,2013-03-21 21:50:00,
2013-03-21 18:00:00,40.9,14.0,29.84,NW,316,0.0,10.0,33,0.00,,BKN250,0.00,VWS V14.01,2013-03-21 22:00:00,
2013-03-21 18:10:00,41.2,13.6,29.84,West,266,0.0,3.0,32,0.00,,BKN250,0.00,VWS V14.01,2013-03-21 22:10:00,
2013-03-21 18:15:00,41.7,14.0,29.84,North,359,0.0,5.0,32,0.00,,BKN250,0.00,VWS V14.01,2013-03-21 22:15:00,
2013-03-21 18:20:00,41.8,14.1,29.84,West,274,0.0,3.0,32,0.00,,BKN250,0.00,VWS V14.01,2013-03-21 22:20:00,
2013-03-21 18:25:00,42.3,13.8,29.84,WNW,293,3.0,6.0,31,0.00,,BKN250,0.00,VWS V14.01,2013-03-21 22:25:00,
2013-03-21 18:30:00,41.8,13.4,29.85,WNW,290,1.0,11.0,31,0.00,,BKN250,0.00,VWS V14.01,2013-03-21 22:30:00,
2013-03-21 18:35:00,41.7,13.3,29.85,WNW,295,0.0,2.0,31,0.00,,BKN250,0.00,VWS V14.01,2013-03-21 22:35:00,
2013-03-21 18:40:00,41.0,12.7,29.85,WNW,295,3.0,9.0,31,0.00,,BKN250,0.00,VWS V14.01,2013-03-21 22:40:00,
2013-03-21 18:45:00,40.6,12.4,29.85,West,269,1.0,3.0,31,0.00,,BKN250,0.00,VWS V14.01,2013-03-21 22:45:00,
2013-03-21 18:50:00,40.3,12.8,29.86,West,274,1.0,4.0,32,0.00,,BKN250,0.00,VWS V14.01,2013-03-21 22:50:00,
2013-03-21 18:55:00,40.0,12.5,29.85,WSW,243,2.0,3.0,32,0.00,,BKN250,0.00,VWS V14.01,2013-03-21 22:55:00,
2013-03-21 19:00:00,39.7,11.6,29.86,NW,318,2.0,5.0,31,0.00,,FEW085,0.00,VWS V14.01,2013-03-21 23:00:00,
2013-03-21 19:05:00,39.5,11.4,29.86,WNW,292,1.0,4.0,31,0.00,,FEW085,0.00,VWS V14.01,2013-03-21 23:05:00,
2013-03-21 19:10:00,39.6,12.2,29.86,West,264,1.0,5.0,32,0.00,,FEW085,0.00,VWS V14.01,2013-03-21 23:10:00,
2013-03-21 19:15:00,39.4,12.0,29.87,NW,304,1.0,4.0,32,0.00,,FEW085,0.00,VWS V14.01,2013-03-21 23:15:00,
2013-03-21 19:20:00,39.1,11.8,29.87,WNW,294,0.0,2.0,32,0.00,,FEW085,0.00,VWS V14.01,2013-03-21 23:20:00,
2013-03-21 19:25:00,38.8,11.5,29.88,NW,317,1.0,6.0,32,0.00,,FEW085,0.00,VWS V14.01,2013-03-21 23:25:00,
2013-03-21 19:30:00,38.5,11.9,29.88,NW,311,0.0,8.0,33,0.00,,FEW085,0.00,VWS V14.01,2013-03-21 23:30:00,
2013-03-21 19:35:00,38.3,11.7,29.88,WNW,301,0.0,2.0,33,0.00,,FEW085,0.00,VWS V14.01,2013-03-21 23:35:00,
2013-03-21 19:40:00,38.0,10.8,29.89,WNW,303,1.0,4.0,32,0.00,,FEW085,0.00,VWS V14.01,2013-03-21 23:40:00,
2013-03-21 19:45:00,37.8,11.3,29.89,WNW,301,1.0,4.0,33,0.00,,FEW085,0.00,VWS V14.01,2013-03-21 23:45:00,
2013-03-21 19:50:00,37.6,10.4,29.89,NW,305,0.0,4.0,32,0.00,,FEW085,0.00,VWS V14.01,2013-03-21 23:50:00,
2013-03-21 19:55:00,37.5,10.3,29.89,NW,308,0.0,4.0,32,0.00,,FEW085,0.00,VWS V14.01,2013-03-21 23:55:00,
2013-03-21 20:00:00,37.3,10.9,29.89,West,278,1.0,1.0,33,0.00,,FEW085,0.00,VWS V14.01,2013-03-22 00:00:00,
2013-03-21 20:05:00,37.2,11.4,29.90,WNW,295,0.0,8.0,34,0.00,,FEW085,0.00,VWS V14.01,2013-03-22 00:05:00,
2013-03-21 20:10:00,37.0,10.6,29.90,NW,307,2.0,3.0,33,0.00,,FEW085,0.00,VWS V14.01,2013-03-22 00:10:00,
2013-03-21 20:15:00,36.9,10.5,29.90,WNW,300,0.0,5.0,33,0.00,,FEW085,0.00,VWS V14.01,2013-03-22 00:15:00,
2013-03-21 20:20:00,36.7,11.0,29.90,WNW,299,1.0,8.0,34,0.00,,FEW085,0.00,VWS V14.01,2013-03-22 00:20:00,
2013-03-21 20:30:00,36.6,9.6,29.91,West,281,0.0,3.0,32,0.00,,FEW085,0.00,VWS V14.01,2013-03-22 00:30:00,
2013-03-21 20:35:00,36.4,10.1,29.91,WNW,297,1.0,4.0,33,0.00,,FEW085,0.00,VWS V14.01,2013-03-22 00:35:00,
2013-03-21 20:40:00,36.3,9.3,29.91,NW,318,0.0,2.0,32,0.00,,FEW085,0.00,VWS V14.01,2013-03-22 00:40:00,
2013-03-21 20:45:00,36.2,9.2,29.92,WNW,301,4.0,4.0,32,0.00,,FEW085,0.00,VWS V14.01,2013-03-22 00:45:00,
2013-03-21 20:50:00,36.1,10.5,29.92,WNW,286,0.0,4.0,34,0.00,,FEW085,0.00,VWS V14.01,2013-03-22 00:50:00,
2013-03-21 20:55:00,35.9,9.6,29.92,WNW,294,0.0,1.0,33,0.00,,FEW085,0.00,VWS V14.01,2013-03-22 00:55:00,
2013-03-21 21:00:00,35.8,9.5,29.92,WNW,295,0.0,3.0,33,0.00,,FEW085,0.00,VWS V14.01,2013-03-22 01:00:00,
2013-03-21 21:05:00,35.6,9.4,29.93,WNW,303,2.0,5.0,33,0.00,,FEW085,0.00,VWS V14.01,2013-03-22 01:05:00,
2013-03-21 21:10:00,35.6,9.4,29.93,NW,314,0.0,2.0,33,0.00,,FEW085,0.00,VWS V14.01,2013-03-22 01:10:00,
2013-03-21 21:15:00,35.5,9.3,29.93,WNW,300,0.0,3.0,33,0.00,,FEW085,0.00,VWS V14.01,2013-03-22 01:15:00,
2013-03-21 21:20:00,35.3,9.8,29.93,West,259,1.0,5.0,34,0.00,,FEW085,0.00,VWS V14.01,2013-03-22 01:20:00,
2013-03-21 21:25:00,35.1,10.2,29.93,WNW,289,0.0,5.0,35,0.00,,FEW085,0.00,VWS V14.01,2013-03-22 01:25:00,
2013-03-21 21:30:00,34.9,10.0,29.94,NW,307,0.0,1.0,35,0.00,,FEW085,0.00,VWS V14.01,2013-03-22 01:30:00,
2013-03-21 21:35:00,34.8,9.9,29.94,West,265,0.0,2.0,35,0.00,,FEW085,0.00,VWS V14.01,2013-03-22 01:35:00,
2013-03-21 21:40:00,34.7,9.2,29.94,WNW,302,0.0,3.0,34,0.00,,FEW085,0.00,VWS V14.01,2013-03-22 01:40:00,
2013-03-21 21:45:00,34.6,9.8,29.94,West,271,1.0,1.0,35,0.00,,FEW085,0.00,VWS V14.01,2013-03-22 01:45:00,
2013-03-21 21:50:00,34.5,9.7,29.94,WNW,286,0.0,3.0,35,0.00,,FEW085,0.00,VWS V14.01,2013-03-22 01:50:00,
2013-03-21 21:55:00,34.4,9.6,29.95,NW,319,1.0,2.0,35,0.00,,FEW085,0.00,VWS V14.01,2013-03-22 01:55:00,
2013-03-21 22:00:00,34.3,10.1,29.95,WNW,287,0.0,2.0,36,0.00,,CLR,0.00,VWS V14.01,2013-03-22 02:00:00,
2013-03-21 22:05:00,34.2,10.1,29.95,NW,310,1.0,8.0,36,0.00,,CLR,0.00,VWS V14.01,2013-03-22 02:05:00,
2013-03-21 22:10:00,34.2,9.4,29.95,West,281,0.0,2.0,35,0.00,,CLR,0.00,VWS V14.01,2013-03-22 02:10:00,
2013-03-21 22:15:00,34.1,10.0,29.95,WNW,288,0.0,1.0,36,0.00,,CLR,0.00,VWS V14.01,2013-03-22 02:15:00,
2013-03-21 22:20:00,34.1,10.0,29.96,WNW,290,0.0,1.0,36,0.00,,CLR,0.00,VWS V14.01,2013-03-22 02:20:00,
2013-03-21 22:25:00,33.9,9.8,29.96,WNW,291,0.0,1.0,36,0.00,,CLR,0.00,VWS V14.01,2013-03-22 02:25:00,
2013-03-21 22:30:00,33.7,9.6,29.96,West,279,0.0,2.0,36,0.00,,CLR,0.00,VWS V14.01,2013-03-22 02:30:00,
2013-03-21 22:35:00,33.7,10.2,29.96,WSW,250,0.0,1.0,37,0.00,,CLR,0.00,VWS V14.01,2013-03-22 02:35:00,
2013-03-21 22:40:00,33.6,10.1,29.97,WNW,293,0.0,1.0,37,0.00,,CLR,0.00,VWS V14.01,2013-03-22 02:40:00,
2013-03-21 22:45:00,33.6,10.7,29.97,NW,305,0.0,5.0,38,0.00,,CLR,0.00,VWS V14.01,2013-03-22 02:45:00,
2013-03-21 22:50:00,33.5,10.6,29.96,NW,306,1.0,1.0,38,0.00,,CLR,0.00,VWS V14.01,2013-03-22 02:50:00,
2013-03-21 22:55:00,33.5,10.6,29.96,WNW,297,0.0,1.0,38,0.00,,CLR,0.00,VWS V14.01,2013-03-22 02:55:00,
2013-03-21 23:00:00,33.4,10.5,29.96,WNW,289,1.0,2.0,38,0.00,,CLR,0.00,VWS V14.01,2013-03-22 03:00:00,
2013-03-21 23:05:00,33.3,10.4,29.96,West,281,0.0,4.0,38,0.00,,CLR,0.00,VWS V14.01,2013-03-22 03:05:00,
2013-03-21 23:10:00,33.3,11.0,29.96,WNW,300,0.0,2.0,39,0.00,,CLR,0.00,VWS V14.01,2013-03-22 03:10:00,
2013-03-21 23:15:00,33.1,10.9,29.96,NNW,329,0.0,3.0,39,0.00,,CLR,0.00,VWS V14.01,2013-03-22 03:15:00,
2013-03-21 23:20:00,32.8,11.1,29.97,WNW,283,0.0,3.0,40,0.00,,CLR,0.00,VWS V14.01,2013-03-22 03:20:00,
2013-03-21 23:25:00,32.7,11.1,29.97,WNW,297,0.0,1.0,40,0.00,,CLR,0.00,VWS V14.01,2013-03-22 03:25:00,
2013-03-21 23:30:00,32.7,11.1,29.97,West,280,0.0,1.0,40,0.00,,CLR,0.00,VWS V14.01,2013-03-22 03:30:00,
2013-03-21 23:35:00,32.7,11.6,29.97,NW,314,1.0,1.0,41,0.00,,CLR,0.00,VWS V14.01,2013-03-22 03:35:00,
2013-03-21 23:45:00,32.5,11.4,29.97,NW,311,0.0,1.0,41,0.00,,CLR,0.00,VWS V14.01,2013-03-22 03:45:00,
2013-03-21 23:50:00,32.4,11.3,29.97,NW,307,0.0,2.0,41,0.00,,CLR,0.00,VWS V14.01,2013-03-22 03:50:00,
2013-03-21 23:55:00,32.4,11.3,29.97,West,281,0.0,0.0,41,0.00,,CLR,0.00,VWS V14.01,2013-03-22 03:55:00,